STARLINK-1696 (46545 NORAD) Tracking and Keplerian Element Data

This shows tracking and keplerian element data for the satellite.

Feedback or suggestion? Click here.




ElementValue
Catalog46545
NameSTARLINK-1696
Epoch Orbit1803
Epoch Day27.25001157
Epoch Year2021
RAAN279.8936
Inclination52.9933
Eccentricity0.0002247
Argument of Perigee76.4128
Mean Anonmoly162.8781
Mean Motion15.05507394
Decay Rate0.00278543
L11 46545U 20070P 21027.25001157 .00278543 00000-0 18429-1 0 9990
L22 46545 52.9933 279.8936 0002247 76.4128 162.8781 15.05507394 18038

Live tracking and technical data element details for STARLINK-1696 (NORAD 46545). STARLINK-1696 can be tracked NOW for your location showing map with azimuth and elevation plus other details from your city location.

Track the satellite on the map from your city or location and see movement details for azimuth, elevation, latitude, longitude, range, height, and movement on the map or in text.







IsCatalogInMostPopularTable: catalog: 46545, numindb: 36
Update: records affected: 1



GetName: 46545 STARLINK-1696

Hit Count: updated at: Thu, 28 Jan 2021 13:03:33 GMT